Tracking 29591 objects as of 19-Sep-2024
HD Live streaming from Space Station
objects crossing your sky now

SL-12 R/B(2)

Track SL-12 R/B(2) now!


NORAD ID: 19777
Int'l Code: 1988-095F
Perigee: 36,392.0 km
Apogee: 36,530.6 km
Inclination: 13.4 °
Period: 1,470.3 minutes
Semi major axis: 42832 km
RCS: 2.6743 m2 (large)
Launch date: October 20, 1988
Source: Commonwealth of Independent States (former USSR) (CIS)
Launch site: TYURATAM MISSILE AND SPACE COMPLEX (TTMTR)

Note: This is a ROCKET BODY
Your satellite tracking list
Your tracking list is empty




NASA's NSSDC Master Catalog

Two Line Element Set (TLE):
1 19777U 88095F   24262.75674277 -.00000033  00000-0  00000-0 0  9999
2 19777  13.4361 337.9490 0016184 239.2938 126.7065  0.97936838116066
Source of the keplerian elements: AFSPC